This demonstration page uses our WeatherBlox Daily Observations layout. Learn more.

Left ArrowRight Arrow

39.92423, -83.80882

Hourly Observations for August 15, 2022

Temp ( °F °C ) Dew Point ( °F °C ) Humidity (%) Winds ( mph kmh ) Pressure ( in mb ) Visibility ( mi km ) Precip ( " mm )
12:10 am 00:10 Cloudy N/A N/A N/A ESE 5 7 30.01 1016 10 16 0.00 0.00
12:41 am 00:41 Cloudy N/A N/A N/A ESE 6 9 30.00 1016 10 16 0.00 0.00
12:56 am 00:56 Cloudy N/A N/A N/A E 6 9 30.00 1016 10 16 0.00 0.00
1:56 am 01:56 Cloudy 64 17.8 N/A N/A ENE 3 6 29.94 1014 10 16 0.00 0.00
2:56 am 02:56 Cloudy 63 17.2 N/A N/A ENE 8 13 29.93 1014 10 16 0.00 0.00
3:16 am 03:16 Cloudy 63 17 N/A N/A ENE 8 13 29.92 1013 10 16 0.00 0.00
3:56 am 03:56 Cloudy 62 16.7 N/A N/A NE 7 11 29.93 1014 10 16 0.00 0.00
4:04 am 04:04 Cloudy 63 17 N/A N/A NE 6 9 29.92 1013 10 16 0.00 0.00
4:26 am 04:26 Cloudy N/A N/A N/A ENE 7 11 29.99 1016 10 16 0.00 0.00
4:56 am 04:56 Mostly Cloudy N/A N/A N/A NE 7 11 29.98 1015 10 16 0.00 0.00
5:56 am 05:56 Cloudy N/A N/A N/A NE 5 7 29.98 1015 10 16 0.00 0.00
6:56 am 06:56 Cloudy N/A N/A N/A ENE 6 9 30.01 1016 10 16 0.00 0.00
7:56 am 07:56 Cloudy 62 16.7 N/A N/A NE 6 9 29.96 1015 10 16 0.00 0.00
8:56 am 08:56 Mostly Cloudy 64 17.8 N/A N/A ENE 7 11 29.96 1015 10 16 0.00 0.00
9:56 am 09:56 Mostly Sunny 69 20.6 64 17.8 84 84 NE 10 17 29.96 1015 10 16 0.00 0.00
10:56 am 10:56 Mostly Sunny 72 22.2 63 17.2 73 73 NE 7 11 29.97 1015 10 16 0.00 0.00
11:56 am 11:56 Mostly Sunny 75 23.9 61 16.1 62 62 ENE 7 11 29.97 1015 10 16 0.00 0.00
12:56 pm 12:56 Mostly Sunny 76 24.4 60 15.6 58 58 NE 10 17 29.93 1013 10 16 0.00 0.00
1:56 pm 13:56 Mostly Cloudy 78 25.6 60 15.6 54 54 NNE 12 19 29.96 1015 10 16 0.00 0.00
2:56 pm 14:56 Partly Cloudy 79 26.1 60 15.6 52 52 NNE 7 11 29.96 1015 10 16 0.00 0.00
3:56 pm 15:56 Mostly Sunny 77 25 59 15 54 54 NE 9 15 29.95 1014 10 16 0.00 0.00
4:56 pm 16:56 Cloudy 75 23.9 60 15.6 60 60 NNE 12 19 29.93 1013 10 16 0.00 0.00
5:56 pm 17:56 Mostly Cloudy 76 24.4 62 16.7 62 62 NNE 10 17 29.93 1013 10 16 0.00 0.00
6:56 pm 18:56 Mostly Sunny 76 24.4 57 13.9 52 52 NNE 14 22 29.91 1013 10 16 0.00 0.00
7:56 pm 19:56 Sunny 74 23.3 58 14.4 57 57 N 8 13 29.96 1015 10 16 0.00 0.00
8:56 pm 20:56 Clear 69 20.6 61 16.1 75 75 NNW 5 7 29.98 1015 10 16 0.00 0.00
9:56 pm 21:56 Mostly Cloudy 67 19.4 63 17.2 87 87 N 7 11 30.00 1016 10 16 0.00 0.00
10:56 pm 22:56 Mostly Cloudy 67 19.4 64 17.8 90 90 N 6 9 30.01 1016 10 16 0.00 0.00
11:56 pm 23:56 Mostly Clear 65 18.3 65 18.3 100 100 NNW 6 9 30.01 1016 10 16 0.00 0.00

Powered by AerisWeather